User: anonymous   Login
Location: Nitra
(48.3167°N, 18.0833°E)
Time: 21:38:17
(UTC+01:00)
Language:

STARLINK-1722 - Orbit

View from above orbital plane
View from above orbital plane
View from above satellite
View from above satellite

Ground track
Ground track

The orbit data is extracted from the following two-line orbital elements,

1 46361C 20062AP  20333.48646116 -.00004523  00000-0 -49322-4 0  3339
2 46361  52.9980   8.2725 0002948  13.6259  92.8774 15.62738193    11
Epoch (UTC): 28 November 2020 11:40:30
Eccentricity: 0.0002948
inclination: 52.9980°
perigee height: 378 km
apogee height: 382 km
right ascension of ascending node: 8.2725°
argument of perigee: 13.6259°
revolutions per day: 15.62738193
mean anomaly at epoch: 92.8774°
orbit number at epoch: 1

The dashed part of the orbit path shows where the satellite is in the earth's shadow,  

DLR